Regional Weather Roundup
Issued by NWS

Home | Current Version | Previous Version | Graphics & Text | Print | Product List | Glossary On
Versions: 1 2 3 4 5 6 7 8 9 10 11 12 13 14 15 16 17 18 19 20 21 22 23 24 25 26 27 28 29 30 31 32 33 34 35 36 37 38 39 40 41 42 43 44 45 46 47 48 49 50
000
ASUS43 KFSD 070010
RWRSD

WEATHER ROUNDUP FOR SOUTH DAKOTA
NATIONAL WEATHER SERVICE SIOUX FALLS SD
600 PM CST TUE DEC 06 2016

NOTE: "FAIR" INDICATES FEW OR NO CLOUDS BELOW 12,000 FEET WITH NO
SIGNIFICANT WEATHER AND/OR OBSTRUCTIONS TO VISIBILITY.


SDZ001>005-009-010-012>017-070100-
NORTHWEST AND NORTH CENTRAL SOUTH DAKOTA

CITY           SKY/WX    TMP DP  RH WIND       PRES   REMARKS
BUFFALO          N/A      6  -3  66 W23G32    29.97R WCI -15
FAITH            N/A      5  -1  76 W24       30.02R WCI -17
MOBRIDGE       MOCLDY    10   1  67 NW30G41   29.97R WCI -12
$$

SDZ012>016-024>037-041>051-057-063-072>074-070100-
SOUTHWEST AND SOUTH CENTRAL SOUTH DAKOTA

CITY           SKY/WX    TMP DP  RH WIND       PRES   REMARKS
RAPID CTY ARPT CLEAR      9   0  67 NW12      30.02R WCI  -6
PIERRE         CLOUDY    12   4  70 NW36G43   30.03R WCI -11
CUSTER         CLEAR      9  -8  46 NW5       29.84R WCI   1
PHILIP         CLEAR     11   1  64 NW21G28   30.08R WCI  -8
PINE RIDGE     CLEAR      9   3  77 NE3       30.00R
SPEARFISH      FAIR       9  -2  61 W16       29.99R WCI  -9
WINNER         FAIR      15   5  64 NW15      30.04R WCI   0
$$

SDZ004>011-016>023-039-040-070100-
NORTHEAST SOUTH DAKOTA

CITY           SKY/WX    TMP DP  RH WIND       PRES   REMARKS
ABERDEEN       CLOUDY    12   3  67 W23G36    29.91R WCI  -7
WATERTOWN      LGT SNOW  11   6  81 W24G38    29.85R WCI  -9
BROOKINGS      FLURRIES  12   7  80 W25G36    29.87R WCI  -8
SISSETON         N/A     15   8  73 NW28G39   29.78R WCI  -5
$$

SDZ017-020-022-023-036>040-048>070-070100-
SOUTHEAST SOUTH DAKOTA

CITY           SKY/WX    TMP DP  RH WIND       PRES   REMARKS
SIOUX FALLS    PTCLDY    17   9  70 W21G33    29.94R WCI   0
HURON          CLEAR     12   4  70 NW26G38   29.99R WCI  -8
CHAMBERLAIN    CLEAR     15   6  67 NW23G32   30.05R WCI  -3
MITCHELL       CLEAR     16   7  67 W23G36    30.02R WCI  -2
YANKTON        CLEAR     19   7  58 W17       30.02R WCI   4
$$

ABBREVIATIONS USED IN REMARKS
   TC - TEMPERATURE IN CELSIUS
  WCI - WIND CHILL INDEX
   HX - HEAT INDEX
  VSB - VISIBILITY





USA.gov is the U.S. government's official web portal to all federal, state and local government web resources and services.